Weather Roundup
Issued by NWS

Home | Current Version | Previous Version | Graphics & Text | Print | Product List | Glossary Off
Versions: 1 2 3 4 5 6 7 8 9 10 11 12 13 14 15 16 17 18 19 20 21 22 23 24 25 26 27 28 29 30 31 32 33 34 35 36 37 38 39 40 41 42 43 44 45 46 47 48 49 50

000
NZUS93 KARX 191910
HRRWXR

CURRENT HOURLY OBSERVATIONS ACROSS
MUCH OF THE UPPER MISSISSIPPI VALLEY
NATIONAL WEATHER SERVICE LA CROSSE WI
200 PM CDT TUE AUG 19 2014


...SOUTHEAST MINNESOTA...


CITY           SKY/WX    TMP DP  RH WIND       PRES   REMARKS
ROCHESTER      PTSUNNY   77  63  61 NW9G17    29.79R
ROCHESTER/MAYO FAIR      74  59  58 W12G17    29.77S
WINONA         CLOUDY    77  63  61 NW7       29.74S
AUSTIN         MOSUNNY   75  63  64 NW9       29.78S
ALBERT LEA     PTSUNNY   75  63  64 NW7       29.79S
DODGE CENTER   MOSUNNY   75  63  64 NW12      29.78S
PRESTON        PTSUNNY   74  67  76 NW8       29.78S
OWATONNA       MOSUNNY   77  63  61 W10       29.78S
FARIBAULT      PTSUNNY   81  59  47 W9        29.78R
$$

...ELSEWHERE IN MINNESOTA...


CITY           SKY/WX    TMP DP  RH WIND       PRES   REMARKS
MINNEAPOLIS    MOSUNNY   77  61  57 NW12G20   29.75S
INTNL FALLS    PTSUNNY   72  59  63 N8        29.75S
DULUTH         CLOUDY    70  62  76 NW7       29.73S
RED WING       CLOUDY    75  61  60 NW6       29.74S
REDWOOD FALLS  MOSUNNY   82  65  56 N10       29.76F
MANKATO        PTSUNNY   77  63  61 NW9       29.77S
WORTHINGTON    MOSUNNY   82  21  10 NW8       29.83S
FAIRMONT       PTSUNNY   81  59  47 NW8       29.80R
$$

...SOUTHWEST WISCONSIN...


CITY           SKY/WX    TMP DP  RH WIND       PRES   REMARKS
LA CROSSE      MOSUNNY   79  63  57 NW9       29.73S
PRAIRIE DU CHI SUNNY     81  58  45 W9G16     29.74S
BOSCOBEL       MOSUNNY   83  63  50 W10       29.74S
LONE ROCK      MOSUNNY   84  65  52 NW12      29.72F
PLATTEVILLE    PTSUNNY   79  67  66 W12       29.75S
FORT MC COY    CLOUDY    76  60  58 NW9       29.74S
CAMP DOUGLAS   PTSUNNY   75  66  73 NW15      29.72S
VIROQUA        CLOUDY    76  62  62 NW9       29.76R
WIS DELLS      PTSUNNY   78  60  54 W9        29.72S
$$

...ELSEWHERE IN WISCONSIN...


CITY           SKY/WX    TMP DP  RH WIND       PRES   REMARKS
MILWAUKEE      MOSUNNY   82  65  56 W12       29.67F
MADISON        PTSUNNY   81  65  58 NW9       29.70F
GREEN BAY      CLOUDY    74  66  76 SW7       29.68S
EAU CLAIRE     CLOUDY    71  64  78 W6        29.73S
BLACK RVR FLS  CLOUDY    73  61  64 W9        29.73S
MEDFORD        PTSUNNY   69  63  79 W7        29.72S
WAUSAU         MOSUNNY   73  62  68 W13       29.69S
WIS RAPIDS     PTSUNNY   76  62  62 W16G22    29.72S
MARSHFIELD     CLOUDY    72  62  71 W13       29.72S
RICE LAKE      CLOUDY    72  62  71 SW5       29.75S
$$

...NORTHEAST IOWA...


CITY           SKY/WX    TMP DP  RH WIND       PRES   REMARKS
WATERLOO       SUNNY     81  63  54 NW9       29.77S
DUBUQUE        PTSUNNY   82  62  50 W14G21    29.76S
DECORAH        PTSUNNY   77  64  65 VRB7G13   29.76S
MASON CITY     PTSUNNY   80  63  55 N8        29.81S
CHARLES CITY   MOSUNNY   77  66  69 NW7       29.79F
OELWEIN        MOSUNNY   77  64  65 NW13      29.79R
$$

...ELSEWHERE IN IOWA...


CITY           SKY/WX    TMP DP  RH WIND       PRES   REMARKS
DES MOINES     MOSUNNY   85  64  49 W10       29.81S
IOWA CITY      PTSUNNY   83  65  54 W7        29.78S
FORT DODGE     SUNNY     81  63  54 NW5       29.83S
MARSHALLTOWN   MOSUNNY   82  65  56 NW15      29.80S
CEDAR RAPIDS   MOSUNNY   82  65  56 NW10      29.77S
$$

...NORTHERN ILLINOIS...


CITY           SKY/WX    TMP DP  RH WIND       PRES   REMARKS
CHICAGO-OHARE  CLOUDY    81  67  62 W14G25    29.72R
DUPAGE         CLOUDY    81  67  62 SW16G26   29.73S
CHICAGO-MIDWAY CLOUDY    78  71  79 W17G25    29.74R
MOLINE         MOSUNNY   86  67  52 W10       29.75S
ROCKFORD       PTSUNNY   81  66  60 W13G18    29.73F
STERLING       MOSUNNY   86  68  54 W12G22    29.74F
PEORIA         PTSUNNY   80  67  64 W6        29.77S
$$

NOTE: "FAIR" INDICATES FEW OR NO CLOUDS BELOW 12,000 FEET WITH NO
SIGNIFICANT WEATHER AND/OR OBSTRUCTIONS TO VISIBILITY. WIND
SPEEDS ARE IN MILES-PER-HOUR.



USA.gov is the U.S. government's official web portal to all federal, state and local government web resources and services.